TimeCDT,TemperatureF,Dew PointF,Humidity,Sea Level PressureIn,VisibilityMPH,Wind Direction,Wind SpeedMPH,Gust SpeedMPH,PrecipitationIn,Events,Conditions,WindDirDegrees,DateUTC
12:53 AM,75.9,71.1,85,29.82,10.0,SSE,8.1,-,N/A,,Clear,150,2013-09-09 05:53:00
1:53 AM,75.0,71.1,87,29.82,10.0,SSE,8.1,-,N/A,,Clear,160,2013-09-09 06:53:00
2:53 AM,73.9,71.1,91,29.82,9.0,South,5.8,-,N/A,,Clear,170,2013-09-09 07:53:00
3:53 AM,73.9,70.0,87,29.82,8.0,South,6.9,-,N/A,,Clear,180,2013-09-09 08:53:00
4:53 AM,73.0,70.0,90,29.82,8.0,South,5.8,-,N/A,,Clear,190,2013-09-09 09:53:00
5:53 AM,73.0,69.1,87,29.82,8.0,South,6.9,-,N/A,,Clear,190,2013-09-09 10:53:00
6:53 AM,72.0,68.0,87,29.83,6.0,SSW,6.9,-,N/A,,Clear,200,2013-09-09 11:53:00
7:53 AM,75.0,68.0,79,29.85,9.0,SW,5.8,-,N/A,,Clear,220,2013-09-09 12:53:00
8:53 AM,80.1,66.9,64,29.84,10.0,SW,6.9,-,N/A,,Clear,220,2013-09-09 13:53:00
9:53 AM,84.9,66.9,55,29.84,10.0,SW,9.2,-,N/A,,Clear,230,2013-09-09 14:53:00
10:53 AM,89.1,64.9,45,29.83,10.0,WSW,12.7,-,N/A,,Clear,240,2013-09-09 15:53:00
11:53 AM,93.0,64.0,38,29.82,10.0,WSW,10.4,-,N/A,,Clear,240,2013-09-09 16:53:00
12:53 PM,96.1,63.0,33,29.81,10.0,West,8.1,-,N/A,,Clear,260,2013-09-09 17:53:00
1:53 PM,96.1,61.0,31,29.81,10.0,SW,11.5,21.9,N/A,,Clear,230,2013-09-09 18:53:00
2:53 PM,98.1,63.0,31,29.79,10.0,SSW,15.0,-,N/A,,Clear,210,2013-09-09 19:53:00
3:53 PM,97.0,61.0,30,29.78,10.0,SSW,13.8,21.9,N/A,,Clear,210,2013-09-09 20:53:00
4:53 PM,97.0,61.0,30,29.78,10.0,SSW,18.4,25.3,N/A,,Clear,210,2013-09-09 21:53:00
5:53 PM,95.0,60.1,31,29.78,10.0,SW,12.7,23.0,N/A,,Clear,220,2013-09-09 22:53:00
6:53 PM,91.9,60.1,34,29.81,10.0,SW,9.2,-,N/A,,Clear,220,2013-09-09 23:53:00
7:53 PM,84.0,62.1,47,29.83,10.0,South,4.6,-,N/A,,Clear,190,2013-09-10 00:53:00
8:53 PM,79.0,63.0,58,29.85,10.0,South,9.2,-,N/A,,Clear,190,2013-09-10 01:53:00
9:53 PM,78.1,62.1,58,29.86,10.0,SSW,8.1,-,N/A,,Clear,200,2013-09-10 02:53:00
10:53 PM,81.0,60.1,49,29.87,10.0,SSW,10.4,-,N/A,,Clear,210,2013-09-10 03:53:00
11:53 PM,79.0,61.0,54,29.88,10.0,SSW,9.2,-,N/A,,Clear,210,2013-09-10 04:53:00